Muscatine, IA

6:02 AM CDT on August 17, 2017 (GMT -0500)
Muscatine Municipal

Weather History for KMUT - January, 2014

Change the Weather History Date:

Monday, January 6, 2014

  Actual Average Record
Temperature  
Mean Temperature -8 °F -  
Max Temperature -4 °F 28 °F 59 °F (2012)
Min Temperature -13 °F 13 °F -17 °F (1979)
Degree Days  
Heating Degree Days 74    
Moisture  
Dew Point -19 °F    
Average Humidity 60    
Maximum Humidity 70    
Minimum Humidity 54    
Precipitation  
Precipitation 0.00 in - - ()
Sea Level Pressure  
Sea Level Pressure 30.37 in    
Wind  
Wind Speed 19 mph (WNW)    
Max Wind Speed 24 mph    
Max Gust Speed 36 mph    
Visibility 10 miles    
Events      
Averages and records for this station are not official NWS values.
T = Trace of Precipitation, MM = Missing Value Source: NWS Daily Summary

Daily Weather History Graph

Daily Weather History Graph

Search for Another Location

Airport or City:

Trip Planner

Search our weather history database for the weather conditions in past years. The results will help you decide how hot, cold, wet, or windy it might be!

Date:

Astronomy

Jan. 06, 2014 Rise Set
Actual Time 7:30 AM CST 4:50 PM CST
Civil Twilight 6:59 AM CST 5:21 PM CST
Nautical Twilight 6:25 AM CST 5:56 PM CST
Astronomical Twilight 5:51 AM CST 6:29 PM CST
Moon 10:42 AM CST (1/6) 11:28 PM CST (1/6)
Length of Visible Light 10h 21m
Length of Day
9h 19m
Waxing Crescent, 35% of the Moon is Illuminated
Jan 6
Waxing Crescent
Jan 7
First Quarter
Jan 15
Full
Jan 23
Last Quarter
Jan 30
New

Hourly Weather History & Observations

Time (CST) Temp. Windchill Dew Point Humidity Pressure Visibility Wind Dir Wind Speed Gust Speed Precip Events Conditions
12:15 AM -9.4 °F -35.8 °F -20.2 °F 59% 30.35 in 10.0 mi NW 23.0 mph 32.2 mph N/A   Mostly Cloudy
12:35 AM -9.4 °F -35.8 °F -22.0 °F 54% 30.35 in 9.0 mi NW 23.0 mph 35.7 mph N/A   Mostly Cloudy
12:55 AM -9.4 °F -34.1 °F -22.0 °F 54% 30.35 in 10.0 mi NW 19.6 mph 29.9 mph N/A   Overcast
1:15 AM -9.4 °F -35.8 °F -22.0 °F 54% 30.35 in 10.0 mi NW 23.0 mph 33.4 mph N/A   Overcast
1:35 AM -9.4 °F -36.3 °F -22.0 °F 54% 30.35 in 10.0 mi NW 24.2 mph 31.1 mph N/A   Overcast
1:55 AM -11.2 °F -36.4 °F -22.0 °F 59% 30.36 in 10.0 mi NW 19.6 mph 35.7 mph N/A   Mostly Cloudy
2:15 AM -11.2 °F -37.6 °F -22.0 °F 59% 30.36 in 10.0 mi NW 21.9 mph - N/A   Scattered Clouds
2:35 AM -11.2 °F -37.0 °F -22.0 °F 59% 30.36 in 10.0 mi NW 20.7 mph 27.6 mph N/A   Mostly Cloudy
2:55 AM -11.2 °F -33.7 °F -22.0 °F 59% 30.36 in 10.0 mi WNW 15.0 mph 23.0 mph N/A   Scattered Clouds
3:15 AM -11.2 °F -35.8 °F -23.8 °F 54% 30.37 in 10.0 mi NW 18.4 mph 28.8 mph N/A   Scattered Clouds
3:35 AM -11.2 °F -38.2 °F -23.8 °F 54% 30.36 in 10.0 mi WNW 23.0 mph 29.9 mph N/A   Clear
3:55 AM -11.2 °F -35.8 °F -23.8 °F 54% 30.36 in 10.0 mi NW 18.4 mph - N/A   Partly Cloudy
4:15 AM -11.2 °F -34.4 °F -23.8 °F 54% 30.37 in 10.0 mi WNW 16.1 mph 26.5 mph N/A   Mostly Cloudy
4:35 AM -13.0 °F -35.2 °F -23.8 °F 59% 30.37 in 10.0 mi WNW 13.8 mph 19.6 mph N/A   Mostly Cloudy
4:55 AM -13.0 °F -36.0 °F -23.8 °F 59% 30.37 in 10.0 mi WNW 15.0 mph 20.7 mph N/A   Mostly Cloudy
5:15 AM -13.0 °F -36.8 °F -22.0 °F 64% 30.37 in - WNW 16.1 mph 23.0 mph N/A   Overcast
5:35 AM -13.0 °F -34.3 °F -20.2 °F 70% 30.38 in 7.0 mi WNW 12.7 mph 18.4 mph N/A   Overcast
5:55 AM -13.0 °F -36.0 °F -22.0 °F 64% 30.38 in 10.0 mi WNW 15.0 mph - N/A   Overcast
6:15 AM -13.0 °F -40.6 °F -23.8 °F 59% 30.38 in 10.0 mi WNW 23.0 mph - N/A   Overcast
6:35 AM -13.0 °F -38.8 °F -23.8 °F 59% 30.38 in 10.0 mi WNW 19.6 mph 27.6 mph N/A   Overcast
6:55 AM -13.0 °F -37.5 °F -23.8 °F 59% 30.38 in 10.0 mi WNW 17.3 mph 24.2 mph N/A   Overcast
7:15 AM -13.0 °F -36.8 °F -23.8 °F 59% 30.38 in 10.0 mi WNW 16.1 mph 24.2 mph N/A   Overcast
7:35 AM -13.0 °F -36.8 °F -23.8 °F 59% 30.39 in 10.0 mi WNW 16.1 mph 23.0 mph N/A   Overcast
7:55 AM -13.0 °F -36.8 °F -23.8 °F 59% 30.39 in 10.0 mi WNW 16.1 mph - N/A   Mostly Cloudy
8:15 AM -13.0 °F -37.5 °F -23.8 °F 59% 30.39 in 10.0 mi WNW 17.3 mph 25.3 mph N/A   Scattered Clouds
8:35 AM -13.0 °F -38.2 °F -23.8 °F 59% 30.40 in 10.0 mi WNW 18.4 mph 25.3 mph N/A   Mostly Cloudy
8:55 AM -13.0 °F -39.4 °F -23.8 °F 59% 30.40 in 10.0 mi WNW 20.7 mph - N/A   Mostly Cloudy
9:15 AM -11.2 °F -38.2 °F -23.8 °F 54% 30.40 in 10.0 mi WNW 23.0 mph 28.8 mph N/A   Scattered Clouds
9:35 AM -11.2 °F -36.4 °F -22.0 °F 59% 30.41 in 10.0 mi WNW 19.6 mph 28.8 mph N/A   Mostly Cloudy
9:55 AM -11.2 °F -38.7 °F -22.0 °F 59% 30.41 in 10.0 mi WNW 24.2 mph - N/A   Overcast
10:15 AM -11.2 °F -38.2 °F -22.0 °F 59% 30.40 in 10.0 mi WNW 23.0 mph 29.9 mph N/A   Overcast
10:35 AM -11.2 °F -38.2 °F -22.0 °F 59% 30.40 in 10.0 mi WNW 23.0 mph 29.9 mph N/A   Mostly Cloudy
10:55 AM -11.2 °F -38.7 °F -22.0 °F 59% 30.40 in 10.0 mi WNW 24.2 mph - N/A   Mostly Cloudy
11:15 AM -9.4 °F -36.3 °F -22.0 °F 54% 30.40 in 10.0 mi WNW 24.2 mph 31.1 mph N/A   Mostly Cloudy
11:35 AM -9.4 °F -34.7 °F -20.2 °F 59% 30.40 in 10.0 mi WNW 20.7 mph 28.8 mph N/A   Overcast
11:55 AM -9.4 °F -35.8 °F -20.2 °F 59% 30.39 in 10.0 mi West 23.0 mph - N/A   Mostly Cloudy
12:15 PM -9.4 °F -35.8 °F -20.2 °F 59% 30.39 in 10.0 mi WNW 23.0 mph 31.1 mph N/A   Mostly Cloudy
12:35 PM -7.6 °F -32.9 °F -18.4 °F 59% 30.38 in 10.0 mi West 21.9 mph 31.1 mph N/A   Mostly Cloudy
12:55 PM -7.6 °F -31.7 °F -20.2 °F 54% 30.38 in 10.0 mi West 19.6 mph 26.5 mph N/A   Mostly Cloudy
1:15 PM -7.6 °F -32.3 °F -18.4 °F 59% 30.37 in 10.0 mi WNW 20.7 mph 26.5 mph N/A   Mostly Cloudy
1:35 PM -7.6 °F -31.1 °F -18.4 °F 59% 30.37 in 10.0 mi WNW 18.4 mph 26.5 mph N/A   Mostly Cloudy
1:55 PM -5.8 °F -30.5 °F -18.4 °F 55% 30.37 in 10.0 mi WNW 21.9 mph - N/A   Mostly Cloudy
2:15 PM -5.8 °F -29.9 °F -18.4 °F 55% 30.38 in 10.0 mi West 20.7 mph 27.6 mph N/A   Mostly Cloudy
2:35 PM -5.8 °F -29.9 °F -16.6 °F 60% 30.38 in 10.0 mi West 20.7 mph - N/A   Mostly Cloudy
2:55 PM -5.8 °F -28.8 °F -16.6 °F 60% 30.38 in 10.0 mi West 18.4 mph - N/A   Mostly Cloudy
3:15 PM -5.8 °F -30.5 °F -14.8 °F 65% 30.38 in 7.0 mi West 21.9 mph - N/A   Mostly Cloudy
3:35 PM -5.8 °F -26.8 °F -16.6 °F 60% 30.39 in 9.0 mi West 15.0 mph 23.0 mph N/A   Mostly Cloudy
3:55 PM -5.8 °F -28.2 °F -16.6 °F 60% 30.39 in 10.0 mi West 17.3 mph 27.6 mph N/A   Mostly Cloudy
4:15 PM -5.8 °F -25.2 °F -16.6 °F 60% 30.38 in 10.0 mi West 12.7 mph 19.6 mph N/A   Mostly Cloudy
4:35 PM -5.8 °F -29.4 °F -16.6 °F 60% 30.38 in 10.0 mi West 19.6 mph - N/A   Mostly Cloudy
4:55 PM -5.8 °F -28.2 °F -16.6 °F 60% 30.38 in 10.0 mi West 17.3 mph - N/A   Partly Cloudy
5:15 PM -5.8 °F -26.0 °F -14.8 °F 65% 30.38 in 10.0 mi West 13.8 mph 19.6 mph N/A   Partly Cloudy
5:35 PM -5.8 °F -26.0 °F -14.8 °F 65% 30.38 in 10.0 mi West 13.8 mph - N/A   Partly Cloudy
5:55 PM -5.8 °F -26.0 °F -14.8 °F 65% 30.38 in 10.0 mi West 13.8 mph - N/A   Clear
6:15 PM -5.8 °F -26.0 °F -14.8 °F 65% 30.38 in 10.0 mi West 13.8 mph - N/A   Clear
6:35 PM -5.8 °F -24.4 °F -14.8 °F 65% 30.37 in 10.0 mi West 11.5 mph 17.3 mph N/A   Clear
6:55 PM -4.0 °F -23.0 °F -14.8 °F 60% 30.37 in 10.0 mi West 12.7 mph 19.6 mph N/A   Partly Cloudy
7:15 PM -4.0 °F -23.7 °F -13.0 °F 65% 30.37 in 10.0 mi West 13.8 mph - N/A   Partly Cloudy
7:35 PM -4.0 °F -23.0 °F -13.0 °F 65% 30.37 in 10.0 mi West 12.7 mph - N/A   Clear
7:55 PM -4.0 °F -22.1 °F -13.0 °F 65% 30.37 in 10.0 mi West 11.5 mph - N/A   Clear
8:15 PM -4.0 °F -23.7 °F -13.0 °F 65% 30.37 in 10.0 mi West 13.8 mph - N/A   Clear
8:35 PM -4.0 °F -22.1 °F -13.0 °F 65% 30.36 in 10.0 mi WSW 11.5 mph - N/A   Scattered Clouds
8:55 PM -4.0 °F -21.2 °F -13.0 °F 65% 30.36 in 10.0 mi WSW 10.4 mph - N/A   Mostly Cloudy
9:15 PM -4.0 °F -23.0 °F -13.0 °F 65% 30.36 in 10.0 mi WSW 12.7 mph - N/A   Mostly Cloudy
9:35 PM -4.0 °F -23.7 °F -13.0 °F 65% 30.35 in 10.0 mi West 13.8 mph - N/A   Mostly Cloudy
9:55 PM -4.0 °F -22.1 °F -13.0 °F 65% 30.35 in 10.0 mi WSW 11.5 mph - N/A   Overcast
10:15 PM -4.0 °F -22.1 °F -14.8 °F 60% 30.35 in 10.0 mi WSW 11.5 mph - N/A   Mostly Cloudy
10:35 PM -4.0 °F -21.2 °F -13.0 °F 65% 30.35 in 10.0 mi West 10.4 mph - N/A   Partly Cloudy
10:55 PM -4.0 °F -21.2 °F -13.0 °F 65% 30.35 in 10.0 mi WSW 10.4 mph - N/A   Clear
11:15 PM -4.0 °F -22.1 °F -13.0 °F 65% 30.34 in 10.0 mi West 11.5 mph - N/A   Scattered Clouds
11:35 PM -4.0 °F -21.2 °F -13.0 °F 65% 30.34 in 10.0 mi WSW 10.4 mph - N/A   Partly Cloudy
11:55 PM -4.0 °F -22.1 °F -13.0 °F 65% 30.34 in 10.0 mi WSW 11.5 mph - N/A   Clear